KD4YQH Weather Reports


time (UTC)temp
C
wind
direction
speed
KPH
gust
KPH
rain 1hr
cm
rain 24hr
cm
rain mn
cm
humidity
%
barometer
mb
20260505101446 9 57 0.0 0.0 0.00 0.74 0.00 97 1009.9
20260505100441 10 57 0.0 0.0 0.00 0.74 0.00 97 1009.9
20260505095432 10 57 0.0 0.0 0.00 0.74 0.00 96 1009.9
20260505094424 10 57 0.0 0.0 0.00 0.74 0.00 96 1009.9
20260505093417 10 57 0.0 0.0 0.00 0.74 0.00 96 1009.9
20260505092410 10 57 0.0 0.0 0.00 0.74 0.00 96 1009.9
20260505091357 10 57 0.0 0.0 0.00 0.74 0.00 96 1009.9
20260505090409 10 57 0.0 0.0 0.00 0.74 0.00 96 1009.9
20260505085347 10 57 0.0 0.0 0.00 0.76 0.00 96 1009.9
20260505084339 10 57 0.0 0.0 0.00 0.84 0.00 96 1009.9
20260505083305 10 57 0.0 0.0 0.00 0.89 0.00 96 1009.9
20260505082254 11 57 0.0 0.0 0.00 0.89 0.00 96 1009.9
20260505081248 11 57 0.0 0.0 0.00 0.89 0.00 96 1009.9
20260505080232 11 57 0.0 0.0 0.00 0.89 0.00 95 1009.9
20260505075232 11 57 0.0 0.0 0.00 0.89 0.00 95 1009.9
20260505074218 11 57 0.0 0.0 0.00 0.89 0.00 95 1009.9
20260505073203 11 57 0.0 0.0 0.00 0.89 0.00 95 1009.9
20260505072154 11 57 0.0 0.0 0.00 0.89 0.00 95 1009.9
20260505071148 11 57 0.0 0.0 0.00 0.89 0.00 95 1009.9
20260505070140 11 57 0.0 0.0 0.00 0.89 0.00 95 1009.9
20260505065138 11 57 0.0 0.0 0.00 0.89 0.00 95 1009.9
20260505064139 11 57 0.0 0.0 0.00 0.89 0.00 95 1009.9
20260505063130 11 57 0.0 0.0 0.00 0.89 0.00 95 1009.9
20260505062130 12 57 0.0 0.0 0.00 0.89 0.00 95 1009.9
20260505061128 11 57 0.0 0.0 0.00 0.89 0.00 95 1009.9
20260505060120 11 57 0.0 0.0 0.00 0.89 0.00 95 1009.9
20260505053101 12 30 0.0 1.6 0.00 0.89 0.00 94 1009.9
20260505052053 12 30 0.0 1.6 0.00 0.89 0.00 94 1009.9
20260505051051 12 78 0.0 0.0 0.00 0.89 0.00 95 1009.9
20260505040959 12 78 0.0 0.0 0.00 0.89 0.00 92 1009.9
20260505040000 13 78 0.0 3.2 0.00 0.89 0.89 92 1009.9
20260505033934 13 19 0.0 3.2 0.00 0.89 0.89 91 1009.9
20260505031928 13 19 0.0 0.0 0.00 0.89 0.89 90 1009.9
20260505030920 14 19 0.0 0.0 0.00 0.89 0.89 90 1009.9
20260505025913 14 19 0.0 0.0 0.00 0.89 0.89 89 1009.9
20260505024859 14 19 0.0 0.0 0.00 0.89 0.89 89 1009.9
20260505023846 15 19 0.0 0.0 0.00 0.89 0.89 88 1009.9
20260505021818 15 37 0.0 3.2 0.00 0.89 0.89 87 1009.9
20260505015813 15 4 0.0 1.6 0.00 0.89 0.89 86 1009.9
20260505014810 15 50 0.0 0.0 0.00 0.89 0.89 85 1009.9
20260505013757 15 50 0.0 0.0 0.00 0.89 0.89 85 1009.9
20260505012755 16 50 0.0 0.0 0.00 0.89 0.89 83 1009.9
20260505011755 16 50 0.0 0.0 0.00 0.89 0.89 81 1009.9
20260505010751 17 50 0.0 0.0 0.00 0.89 0.89 78 1009.9
20260505005741 17 50 0.0 0.0 0.00 0.89 0.89 76 1009.9
20260505004730 18 50 0.0 0.0 0.00 0.89 0.89 74 1009.9
20260505003729 18 50 0.0 0.0 0.00 0.89 0.89 72 1009.9
20260505002720 19 50 0.0 0.0 0.00 0.89 0.89 70 1009.9
20260505001711 20 50 0.0 0.0 0.00 0.89 0.89 67 1009.9
20260504235658 21 50 0.0 0.0 0.00 0.89 0.89 63 1009.9
20260504234650 22 50 0.0 0.0 0.00 0.89 0.89 58 1009.9
20260504232641 23 140 3.2 6.4 0.00 0.89 0.89 50 1009.9
20260504231641 23 23 0.0 11.3 0.00 0.89 0.89 53 1009.9
20260504230638 23 143 0.0 6.4 0.00 0.89 0.89 47 1009.9
20260504224636 24 91 0.0 11.3 0.00 0.89 0.89 51 1009.9
20260504223621 24 105 4.8 11.3 0.00 0.89 0.89 45 1009.9
20260504221623 25 80 0.0 11.3 0.00 0.89 0.89 45 1009.9
20260504220618 25 358 1.6 11.3 0.00 0.89 0.89 44 1009.9
20260504215611 25 217 1.6 14.5 0.00 0.89 0.89 42 1009.9
20260504214610 25 163 0.0 14.5 0.00 0.89 0.89 44 1009.9
20260504213605 25 46 4.8 14.5 0.00 0.89 0.89 41 1009.9
20260504212602 25 149 6.4 14.5 0.00 0.89 0.89 42 1009.9
20260504211604 25 130 1.6 11.3 0.00 0.89 0.89 44 1009.9
20260504210547 25 201 3.2 12.9 0.00 0.89 0.89 42 1009.9
20260504205545 25 195 3.2 16.1 0.00 0.89 0.89 42 1009.9
20260504204541 25 251 3.2 17.7 0.00 0.89 0.89 41 1009.9
20260504203540 25 171 4.8 14.5 0.00 0.89 0.89 42 1009.9
20260504202541 25 5 4.8 14.5 0.00 0.89 0.89 42 1009.9
20260504200539 25 206 6.4 17.7 0.00 0.89 0.89 41 1009.9
20260504194538 25 127 3.2 16.1 0.00 0.89 0.89 42 1009.9
20260504193536 25 210 3.2 14.5 0.00 0.89 0.89 44 1009.9
20260504192536 24 172 3.2 16.1 0.00 0.89 0.89 47 1009.9
20260504191536 24 240 6.4 20.9 0.00 0.89 0.89 44 1009.9
20260504190535 24 97 1.6 24.1 0.00 0.89 0.89 45 1009.9
20260504185535 24 106 4.8 16.1 0.00 0.89 0.89 46 1009.9
20260504183536 24 257 3.2 12.9 0.00 0.89 0.89 48 1009.9
20260504182535 23 182 3.2 17.7 0.00 0.89 0.89 46 1009.9
20260504175533 22 4 4.8 16.1 0.00 0.89 0.89 48 1009.9
20260504174532 22 278 9.7 22.5 0.00 0.89 0.89 48 1009.9
20260504172532 22 67 1.6 14.5 0.00 0.89 0.89 52 1009.9
20260504171532 21 219 3.2 16.1 0.00 0.89 0.89 50 1009.9
20260504170531 21 227 3.2 17.7 0.00 0.89 0.89 52 1009.9